Time,TemperatureF,DewpointF,PressureIn,WindDirection,WindDirectionDegrees,WindSpeedMPH,WindSpeedGustMPH,Humidity,HourlyPrecipIn,Conditions,Clouds,dailyrainin,SoftwareType,DateUTC
2013-07-03 00:01:00,69.0,68.0,30.19,East,83,0.0,0.0,96,0.00,,,0.11,,2013-07-03 04:01:00,
2013-07-03 00:33:00,68.0,67.0,30.19,East,83,0.0,0.0,96,0.00,,,0.11,,2013-07-03 04:33:00,
2013-07-03 00:43:00,69.0,68.0,30.19,East,83,0.0,0.0,96,0.00,,,0.11,,2013-07-03 04:43:00,
2013-07-03 00:52:00,69.0,68.0,30.18,ESE,106,0.0,0.0,96,0.00,,,0.11,,2013-07-03 04:52:00,
2013-07-03 01:02:00,69.0,68.0,30.18,ESE,106,0.0,0.0,96,0.00,,,0.11,,2013-07-03 05:02:00,
2013-07-03 01:11:00,69.0,68.0,30.18,ESE,106,0.0,0.0,96,0.00,,,0.11,,2013-07-03 05:11:00,
2013-07-03 01:47:00,69.0,68.0,30.19,ENE,72,0.0,0.0,97,0.00,,,0.11,,2013-07-03 05:47:00,
2013-07-03 01:56:00,69.0,68.0,30.19,ENE,73,0.0,0.0,96,0.00,,,0.11,,2013-07-03 05:56:00,
2013-07-03 02:24:00,69.0,68.0,30.18,ESE,103,0.0,1.0,97,0.00,,,0.11,,2013-07-03 06:24:00,
2013-07-03 02:48:00,69.0,68.0,30.17,ESE,104,0.0,0.0,97,0.00,,,0.11,,2013-07-03 06:48:00,
2013-07-03 02:54:00,69.0,68.0,30.17,ESE,103,0.0,0.0,97,0.00,,,0.11,,2013-07-03 06:54:00,
2013-07-03 03:15:00,69.0,68.0,30.16,ESE,104,0.0,0.0,97,0.00,,,0.11,,2013-07-03 07:15:00,
2013-07-03 03:26:00,69.0,68.0,30.16,ESE,104,0.0,0.0,97,0.00,,,0.11,,2013-07-03 07:26:00,
2013-07-03 03:47:00,69.0,68.0,30.16,ESE,104,0.0,0.0,97,0.00,,,0.11,,2013-07-03 07:47:00,
2013-07-03 04:08:00,69.0,68.0,30.16,ESE,104,0.0,0.0,97,0.00,,,0.01,,2013-07-03 08:08:00,
2013-07-03 04:25:00,69.0,68.0,30.16,ESE,104,0.0,0.0,97,0.00,,,0.00,,2013-07-03 08:25:00,
2013-07-03 04:36:00,69.0,68.0,30.17,ESE,104,0.0,1.0,97,0.00,,,0.00,,2013-07-03 08:36:00,
2013-07-03 04:45:00,69.0,68.0,30.17,ESE,103,0.0,1.0,97,0.00,,,0.00,,2013-07-03 08:45:00,
2013-07-03 05:06:00,69.0,68.0,30.17,ESE,104,0.0,0.0,97,0.00,,,0.00,,2013-07-03 09:06:00,
2013-07-03 05:16:00,69.0,68.0,30.17,ESE,104,0.0,0.0,97,0.00,,,0.00,,2013-07-03 09:16:00,
2013-07-03 05:25:00,69.0,68.0,30.18,ESE,104,0.0,1.0,97,0.00,,,0.00,,2013-07-03 09:25:00,
2013-07-03 05:46:00,69.0,68.0,30.19,ESE,103,0.0,0.0,97,0.00,,,0.00,,2013-07-03 09:46:00,
2013-07-03 05:56:00,69.0,68.0,30.19,ESE,104,0.0,0.0,97,0.00,,,0.00,,2013-07-03 09:56:00,
2013-07-03 06:05:00,69.0,68.0,30.19,ESE,103,0.0,0.0,97,0.00,,,0.00,,2013-07-03 10:05:00,
2013-07-03 06:15:00,69.0,68.0,30.19,ESE,103,0.0,0.0,97,0.00,,,0.00,,2013-07-03 10:15:00,
2013-07-03 06:45:00,69.0,68.0,30.19,ESE,104,0.0,0.0,97,0.00,,,0.00,,2013-07-03 10:45:00,
2013-07-03 06:56:00,69.0,68.0,30.19,ESE,103,0.0,0.0,97,0.00,,,0.00,,2013-07-03 10:56:00,
2013-07-03 07:43:00,69.0,68.0,30.18,ESE,104,0.0,0.0,97,0.00,,,0.00,,2013-07-03 11:43:00,
2013-07-03 07:53:00,69.0,68.0,30.19,ESE,103,0.0,0.0,97,0.00,,,0.00,,2013-07-03 11:53:00,
2013-07-03 08:16:00,69.0,68.0,30.19,ESE,103,0.0,0.0,98,0.00,,,0.00,,2013-07-03 12:16:00,
2013-07-03 08:25:00,69.0,68.0,30.19,ESE,104,0.0,0.0,98,0.00,,,0.00,,2013-07-03 12:25:00,
2013-07-03 08:37:00,69.0,68.0,30.19,ESE,104,0.0,1.0,98,0.00,,,0.00,,2013-07-03 12:37:00,
2013-07-03 08:43:00,69.0,68.0,30.21,ESE,104,0.0,1.0,98,0.00,,,0.00,,2013-07-03 12:43:00,
2013-07-03 08:57:00,69.0,68.0,30.22,ESE,104,0.0,0.0,98,0.00,,,0.00,,2013-07-03 12:57:00,
2013-07-03 09:07:00,69.0,68.0,30.22,ENE,77,0.0,3.0,98,0.00,,,0.00,,2013-07-03 13:07:00,
2013-07-03 09:54:00,69.0,68.0,30.24,East,84,0.0,1.0,98,0.24,,,0.24,,2013-07-03 13:54:00,
2013-07-03 11:05:00,69.0,68.0,30.24,SE,127,0.0,1.0,98,0.35,,,0.84,,2013-07-03 15:05:00,
2013-07-03 11:14:00,69.0,68.0,30.23,NNW,330,0.0,3.0,98,0.47,,,0.98,,2013-07-03 15:14:00,
2013-07-03 11:26:00,69.0,68.0,30.24,NNW,331,0.0,0.0,98,0.50,,,1.04,,2013-07-03 15:26:00,
2013-07-03 11:37:00,69.0,68.0,30.25,NNW,330,0.0,0.0,98,0.59,,,1.14,,2013-07-03 15:37:00,
2013-07-03 11:47:00,69.0,68.0,30.25,NNW,331,0.0,0.0,98,0.59,,,1.37,,2013-07-03 15:47:00,
2013-07-03 11:55:00,69.0,68.0,30.25,NNW,330,0.0,0.0,98,0.57,,,1.38,,2013-07-03 15:55:00,
2013-07-03 12:38:00,69.0,69.0,30.24,NNW,330,0.0,0.0,99,0.30,,,1.43,,2013-07-03 16:38:00,
2013-07-03 12:46:00,69.0,69.0,30.24,NNW,327,0.0,1.0,99,0.27,,,1.63,,2013-07-03 16:46:00,
2013-07-03 12:55:00,69.0,69.0,30.24,NNW,330,0.0,1.0,99,0.30,,,1.68,,2013-07-03 16:55:00,
2013-07-03 13:25:00,68.0,67.0,30.25,NNW,331,0.0,0.0,98,0.62,,,2.00,,2013-07-03 17:25:00,
2013-07-03 13:40:00,68.0,67.0,30.26,NNW,331,0.0,0.0,98,0.92,,,2.32,,2013-07-03 17:40:00,
2013-07-03 13:47:00,67.0,66.0,30.26,NNW,331,0.0,0.0,98,1.21,,,2.84,,2013-07-03 17:47:00,
2013-07-03 13:53:00,67.0,66.0,30.26,NNE,13,0.0,1.0,98,1.37,,,3.05,,2013-07-03 17:53:00,
2013-07-03 14:15:00,67.0,66.0,30.24,NNE,23,0.0,0.0,98,1.68,,,3.39,,2013-07-03 18:15:00,
2013-07-03 14:25:00,67.0,66.0,30.27,NNE,23,0.0,0.0,98,1.41,,,3.41,,2013-07-03 18:25:00,
2013-07-03 14:36:00,67.0,67.0,30.27,NNE,23,0.0,0.0,99,1.21,,,3.53,,2013-07-03 18:36:00,
2013-07-03 14:45:00,67.0,67.0,30.27,NNE,22,0.0,0.0,99,0.74,,,3.58,,2013-07-03 18:45:00,
2013-07-03 14:56:00,67.0,66.0,30.27,NNE,22,0.0,0.0,98,0.71,,,3.76,,2013-07-03 18:56:00,
2013-07-03 15:15:00,66.0,65.0,30.24,NNE,24,0.0,1.0,98,0.64,,,4.03,,2013-07-03 19:15:00,
2013-07-03 15:29:00,66.0,65.0,30.23,NNE,24,0.0,1.0,98,0.63,,,4.04,,2013-07-03 19:29:00,
2013-07-03 15:37:00,66.0,65.0,30.25,NNE,24,0.0,0.0,98,0.53,,,4.06,,2013-07-03 19:37:00,
2013-07-03 15:46:00,66.0,65.0,30.26,NNE,24,0.0,0.0,98,0.49,,,4.07,,2013-07-03 19:46:00,
2013-07-03 16:24:00,65.0,64.0,30.26,NNE,24,0.0,0.0,98,0.10,,,4.14,,2013-07-03 20:24:00,
2013-07-03 16:37:00,65.0,65.0,30.25,NNE,24,0.0,0.0,99,0.11,,,4.17,,2013-07-03 20:37:00,
2013-07-03 16:44:00,65.0,65.0,30.25,NNE,24,0.0,0.0,99,0.11,,,4.18,,2013-07-03 20:44:00,
2013-07-03 16:54:00,66.0,66.0,30.24,NNE,24,0.0,0.0,99,0.10,,,4.19,,2013-07-03 20:54:00,
2013-07-03 17:13:00,66.0,66.0,30.24,NNE,24,0.0,0.0,99,0.07,,,4.19,,2013-07-03 21:13:00,
2013-07-03 17:26:00,66.0,66.0,30.24,NNE,24,0.0,0.0,99,0.06,,,4.20,,2013-07-03 21:26:00,
2013-07-03 17:35:00,67.0,67.0,30.24,NNE,24,0.0,1.0,99,0.03,,,4.20,,2013-07-03 21:35:00,
2013-07-03 17:44:00,67.0,67.0,30.24,NNE,24,0.0,0.0,99,0.02,,,4.20,,2013-07-03 21:44:00,
2013-07-03 17:53:00,67.0,67.0,30.24,NNE,24,0.0,0.0,99,0.01,,,4.20,,2013-07-03 21:53:00,
2013-07-03 18:14:00,66.0,65.0,30.24,NE,55,0.0,2.0,98,0.01,,,4.20,,2013-07-03 22:14:00,
2013-07-03 18:26:00,66.0,66.0,30.25,NNE,14,0.0,1.0,99,0.00,,,4.20,,2013-07-03 22:26:00,
2013-07-03 18:37:00,66.0,66.0,30.24,SE,134,0.0,1.0,99,0.00,,,4.20,,2013-07-03 22:37:00,
2013-07-03 18:45:00,66.0,66.0,30.24,ESE,110,0.0,3.0,99,0.00,,,4.20,,2013-07-03 22:45:00,
2013-07-03 18:54:00,66.0,66.0,30.24,ESE,111,0.0,0.0,99,0.00,,,4.20,,2013-07-03 22:54:00,
2013-07-03 19:05:00,66.0,66.0,30.24,SW,234,0.0,2.0,99,0.00,,,4.20,,2013-07-03 23:05:00,
2013-07-03 19:14:00,66.0,66.0,30.24,SW,235,0.0,0.0,99,0.00,,,4.20,,2013-07-03 23:14:00,
2013-07-03 19:39:00,66.0,65.0,30.25,ENE,73,0.0,1.0,98,0.00,,,4.20,,2013-07-03 23:39:00,
2013-07-03 19:45:00,66.0,65.0,30.25,ENE,73,0.0,0.0,98,0.00,,,4.20,,2013-07-03 23:45:00,
2013-07-03 19:54:00,66.0,66.0,30.26,ENE,72,0.0,0.0,99,0.00,,,4.20,,2013-07-03 23:54:00,
2013-07-03 20:04:00,66.0,66.0,30.26,ENE,73,0.0,0.0,99,0.00,,,4.20,,2013-07-04 00:04:00,
2013-07-03 20:25:00,66.0,66.0,30.25,ENE,72,0.0,0.0,99,0.00,,,4.20,,2013-07-04 00:25:00,
2013-07-03 20:47:00,66.0,66.0,30.26,ENE,73,0.0,0.0,99,0.00,,,4.20,,2013-07-04 00:47:00,
2013-07-03 20:55:00,65.0,65.0,30.26,ENE,72,0.0,0.0,99,0.01,,,4.21,,2013-07-04 00:55:00,
2013-07-03 21:15:00,65.0,65.0,30.26,ENE,73,0.0,0.0,99,0.01,,,4.21,,2013-07-04 01:15:00,
2013-07-03 21:37:00,65.0,65.0,30.27,ENE,73,0.0,0.0,99,0.01,,,4.21,,2013-07-04 01:37:00,
2013-07-03 21:43:00,65.0,65.0,30.27,ENE,73,0.0,0.0,99,0.01,,,4.21,,2013-07-04 01:43:00,
2013-07-03 21:56:00,65.0,65.0,30.27,ENE,73,0.0,0.0,99,0.01,,,4.22,,2013-07-04 01:56:00,
2013-07-03 22:55:00,65.0,65.0,30.27,ENE,73,0.0,0.0,99,0.01,,,4.23,,2013-07-04 02:55:00,
2013-07-03 23:14:00,65.0,65.0,30.28,ENE,73,0.0,0.0,99,0.01,,,4.24,,2013-07-04 03:14:00,
2013-07-03 23:27:00,65.0,65.0,30.28,ENE,72,0.0,0.0,99,0.01,,,4.24,,2013-07-04 03:27:00,
2013-07-03 23:35:00,65.0,65.0,30.28,ENE,73,0.0,0.0,99,0.01,,,4.24,,2013-07-04 03:35:00,
2013-07-03 23:46:00,65.0,65.0,30.28,ENE,72,0.0,0.0,99,0.01,,,4.24,,2013-07-04 03:46:00,
2013-07-03 23:56:00,65.0,65.0,30.28,ENE,72,0.0,0.0,99,0.02,,,4.25,,2013-07-04 03:56:00,